Location: Kellogg
(38.0159°N, 90.0546°W)
Time: 06:59:09
(UTC+00:00)

Vanguard 2 - All Passes

Search period start: 19 September 2024 00:00
Search period end: 29 September 2024 00:00
Orbit: 552 x 2911 km, 32.9° (Epoch: 18 September)

Date Brightness Start Highest point End Pass type
(mag) Time Alt. Az. Time Alt. Az. Time Alt. Az.
19 Sep - 07:31:56 10° SSW 07:35:09 23° SSE 07:38:54 10° ESE visible
19 Sep - 09:38:02 10° WSW 09:42:30 51° S 09:49:11 10° E visible
19 Sep - 11:45:00 10° W 11:50:43 47° S 11:59:59 10° ESE daylight
19 Sep - 13:53:07 10° WSW 13:59:49 27° SSW 14:09:32 10° SSE daylight
20 Sep - 07:45:21 10° SW 07:48:52 29° SSE 07:53:05 10° E visible
20 Sep - 09:51:51 10° WSW 09:56:21 51° S 10:03:07 10° ESE visible
20 Sep - 11:58:58 10° W 12:04:38 40° SSW 12:13:34 10° SE daylight
20 Sep - 14:07:45 10° WSW 14:13:46 21° SSW 14:21:56 10° SSE daylight
21 Sep - 05:54:37 10° SSE 05:55:27 10° SSE 05:56:16 10° SE night (unlit)
21 Sep - 07:58:56 10° SW 08:02:37 35° SSE 08:07:07 10° E visible
21 Sep - 10:05:43 10° WSW 10:10:13 49° S 10:17:00 10° ESE visible
21 Sep - 12:13:03 10° WSW 12:18:33 33° SSW 12:26:55 10° SE daylight
21 Sep - 14:23:03 10° WSW 14:27:45 15° SSW 14:33:33 10° S daylight
22 Sep - 06:06:41 10° SSW 06:09:10 16° SSE 06:11:36 10° ESE night (unlit)
22 Sep - 08:12:38 10° WSW 08:16:24 41° S 08:21:06 10° E visible
22 Sep - 10:19:36 10° W 10:24:05 44° S 10:30:48 10° ESE visible
22 Sep - 12:27:16 10° WSW 12:32:28 26° SSW 12:40:01 10° SSE daylight
23 Sep - 06:19:44 10° SSW 06:22:54 21° SSE 06:26:00 10° ESE night (unlit)
23 Sep - 08:26:24 10° WSW 08:30:13 44° S 08:35:01 10° ESE visible
23 Sep - 10:33:32 10° WSW 10:37:57 37° S 10:44:27 10° SE visible
23 Sep - 12:41:46 10° WSW 12:46:24 20° SSW 12:52:41 10° SSE daylight
24 Sep - 06:33:08 10° SW 06:36:39 27° SSE 06:40:08 10° ESE night (unlit)
24 Sep - 08:40:13 10° WSW 08:44:03 44° S 08:48:53 10° ESE visible
24 Sep - 10:47:32 10° WSW 10:51:50 31° SSW 10:57:57 10° SE visible
24 Sep - 12:56:52 10° SW 13:00:21 14° SSW 13:04:38 10° S daylight
25 Sep - 04:40:35 10° S 04:42:58 13° SSE 04:45:06 10° SE night (unlit)
25 Sep - 06:46:43 10° SW 06:50:27 33° S 06:54:08 10° ESE night (unlit)
25 Sep - 08:54:04 10° WSW 08:57:53 41° S 09:02:42 10° ESE visible
25 Sep - 11:01:42 10° WSW 11:05:42 24° SSW 11:11:13 10° SE visible
26 Sep - 04:53:15 10° SSW 04:56:47 19° SSE 04:59:46 10° ESE night (unlit)
26 Sep - 07:00:25 10° WSW 07:04:15 38° S 07:08:03 10° ESE night (unlit)
26 Sep - 09:07:58 10° WSW 09:11:43 36° S 09:16:26 10° ESE visible
26 Sep - 11:16:06 10° WSW 11:19:36 18° SSW 11:24:05 10° SSE visible
27 Sep - 05:06:27 10° SW 05:10:36 25° SSE 05:14:00 10° ESE night (unlit)
27 Sep - 07:14:12 10° WSW 07:18:04 41° S 07:21:56 10° ESE night (unlit)
27 Sep - 09:21:56 10° WSW 09:25:32 30° SSW 09:30:01 10° SE visible
27 Sep - 11:31:07 10° SW 11:33:29 13° SSW 11:36:14 10° S daylight
28 Sep - 03:13:12 10° S 03:16:30 14° SSE 03:19:15 10° SE visible
28 Sep - 05:19:54 10° SW 05:24:24 31° S 05:28:02 10° ESE night (unlit)
28 Sep - 07:28:02 10° WSW 07:31:52 40° S 07:35:45 10° ESE night (unlit)
28 Sep - 09:36:02 10° WSW 09:39:21 23° SSW 09:43:24 10° SE visible
